Laredo, TX

10:03 AM CDT on March 23, 2017 (GMT -0500)
Laredo International

Weather History for KLRD - October, 2012

Change the Weather History Date:

Friday, October 19, 2012

  Actual Average Record
Temperature  
Mean Temperature 79 °F 75 °F  
Max Temperature 88 °F 86 °F 99 °F (2004)
Min Temperature 70 °F 65 °F 41 °F (1917)
Degree Days  
Heating Degree Days 0 0  
Month to date heating degree days 2 0  
Since 1 July heating degree days 2 1  
Cooling Degree Days 14 11  
Month to date cooling degree days 304 237  
Year to date cooling degree days 4734 4022  
Growing Degree Days 28 (Base 50)    
Moisture  
Dew Point 56 °F    
Average Humidity 49    
Maximum Humidity 66    
Minimum Humidity 40    
Precipitation  
Precipitation 0.00 in 0.07 in 1.03 in (1942)
Month to date precipitation T 1.52  
Year to date precipitation 8.76 17.44  
Sea Level Pressure  
Sea Level Pressure 29.95 in    
Wind  
Wind Speed 8 mph (East)    
Max Wind Speed 16 mph    
Max Gust Speed 20 mph    
Visibility 10 miles    
Events      
T = Trace of Precipitation, MM = Missing Value Source: NWS Daily Summary

Daily Weather History Graph

Daily Weather History Graph

Search for Another Location

Airport or City:

Trip Planner

Search our weather history database for the weather conditions in past years. The results will help you decide how hot, cold, wet, or windy it might be!

Date:

Astronomy

Oct. 19, 2012 Rise Set
Actual Time 7:40 AM CDT 7:04 PM CDT
Civil Twilight 7:16 AM CDT 7:28 PM CDT
Nautical Twilight 6:49 AM CDT 7:55 PM CDT
Astronomical Twilight 6:22 AM CDT 8:22 PM CDT
Moon 12:07 PM CDT (10/19) 11:01 PM CDT (10/19)
Length of Visible Light 12h 11m
Length of Day
11h 24m
Waxing Crescent, 24% of the Moon is Illuminated
Oct 19
Waxing Crescent
Oct 21
First Quarter
Oct 29
Full
Nov 6
Last Quarter
Nov 13
New

Hourly Weather History & Observations

Time (CDT) Temp. Heat Index Dew Point Humidity Pressure Visibility Wind Dir Wind Speed Gust Speed Precip Events Conditions
12:44 AM 75.2 °F - 55.4 °F 50% 29.97 in 10.0 mi ENE 12.7 mph - N/A   Scattered Clouds
12:56 AM 75.9 °F - 54.9 °F 48% 29.94 in 10.0 mi ENE 9.2 mph - N/A   Scattered Clouds
1:09 AM 75.2 °F - 55.4 °F 50% 29.97 in 10.0 mi ENE 9.2 mph - N/A   Mostly Cloudy
1:34 AM 75.2 °F - 53.6 °F 47% 29.97 in 10.0 mi East 12.7 mph - N/A   Scattered Clouds
1:56 AM 73.9 °F - 52.9 °F 48% 29.94 in 10.0 mi East 12.7 mph - N/A   Clear
2:26 AM 75.2 °F - 51.8 °F 44% 29.97 in 10.0 mi East 10.4 mph - N/A   Mostly Cloudy
2:56 AM 73.9 °F - 52.0 °F 46% 29.94 in 10.0 mi ENE 9.2 mph - N/A   Mostly Cloudy
3:56 AM 72.0 °F - 54.0 °F 53% 29.94 in 10.0 mi North 6.9 mph - N/A   Clear
4:56 AM 72.0 °F - 52.0 °F 49% 29.94 in 10.0 mi ENE 9.2 mph - N/A   Mostly Cloudy
5:44 AM 71.6 °F - 50.0 °F 46% 29.98 in 10.0 mi NE 9.2 mph - N/A   Mostly Cloudy
5:56 AM 72.0 °F - 50.0 °F 46% 29.95 in 10.0 mi ENE 9.2 mph - N/A   Mostly Cloudy
6:20 AM 71.6 °F - 50.0 °F 46% 29.99 in 10.0 mi NE 11.5 mph - N/A   Mostly Cloudy
6:56 AM 70.9 °F - 48.9 °F 46% 29.96 in 10.0 mi ENE 10.4 mph - N/A   Clear
7:56 AM 70.0 °F - 48.9 °F 47% 29.98 in 10.0 mi ENE 10.4 mph - N/A   Mostly Cloudy
8:56 AM 70.0 °F - 50.0 °F 49% 30.00 in 10.0 mi East 8.1 mph - N/A   Mostly Cloudy
9:56 AM 72.9 °F - 50.0 °F 44% 30.02 in 10.0 mi ENE 8.1 mph - N/A   Overcast
10:56 AM 77.0 °F - 52.0 °F 42% 30.02 in 10.0 mi ESE 4.6 mph - N/A   Clear
11:56 AM 79.0 °F - 54.9 °F 43% 30.02 in 10.0 mi Calm Calm - N/A   Clear
12:56 PM 81.9 °F 81.8 °F 57.9 °F 44% 29.99 in 10.0 mi East 4.6 mph - N/A   Mostly Cloudy
1:56 PM 84.2 °F 84.4 °F 60.8 °F 45% 30.00 in 10.0 mi East 9.2 mph - N/A   Partly Cloudy
2:56 PM 84.9 °F 85.0 °F 61.0 °F 44% 29.93 in 10.0 mi Variable 3.5 mph - N/A   Mostly Cloudy
3:56 PM 87.8 °F 88.5 °F 62.6 °F 43% 29.93 in 10.0 mi East 5.8 mph - N/A   Clear
4:56 PM 86.9 °F 87.2 °F 61.9 °F 43% 29.88 in 10.0 mi ESE 5.8 mph - N/A   Partly Cloudy
5:56 PM 86.9 °F 87.2 °F 61.9 °F 43% 29.88 in 10.0 mi SE 10.4 mph - N/A   Scattered Clouds
6:56 PM 86.0 °F 86.8 °F 63.0 °F 46% 29.88 in 10.0 mi SE 8.1 mph - N/A   Partly Cloudy
7:56 PM 82.9 °F 84.0 °F 63.0 °F 51% 29.90 in 10.0 mi SE 10.4 mph - N/A   Clear
8:56 PM 80.6 °F 82.3 °F 64.4 °F 58% 29.94 in 10.0 mi SE 12.7 mph - N/A   Clear
8:58 PM 80.6 °F 82.3 °F 64.4 °F 58% 29.94 in 10.0 mi SE 11.5 mph - N/A   Clear
9:56 PM 79.0 °F - 63.0 °F 58% 29.92 in 10.0 mi ESE 12.7 mph - N/A   Clear
10:56 PM 77.0 °F - 63.0 °F 62% 29.93 in 10.0 mi SE 10.4 mph - N/A   Clear
11:56 PM 75.9 °F - 63.9 °F 66% 29.92 in 10.0 mi SE 9.2 mph - N/A   Clear